Temperature
18 18 18 18 17 17 17 17 17 17 17 17 17 17 17 16 16 16 16 16 16 16 16 16 16 16 16 17 17 17 17 17 17 16 16 16 16 15 15 15 15 15 15
17 17 17 17 17 17 17 17 17 17 17 17 16 16 16 16 16 16 16 16 16 16 16 16 16 16 16 16 16 16 16 16 16 16 15 15 15 15 14 14 14 14 14
17 17 17 17 17 17 17 17 17 17 17 16 16 16 16 16 16 16 16 16 16 15 15 15 15 15 15 15 15 16 15 15 15 15 15 14 14 14 14 13 13 13 13
17 17 17 17 17 17 17 16 16 16 16 16 16 16 16 16 16 15 15 15 15 15 15 15 15 15 15 15 15 15 15 15 14 14 14 13 13 13 13 13 12 12 12
17 17 16 16 16 16 16 16 16 16 16 16 16 16 16 15 15 15 15 15 15 14 14 14 14 14 14 14 14 14 14 14 13 13 13 13 12 12 12 12 11 11 11
16 16 16 16 16 16 16 16 16 16 16 16 15 15 15 15 15 15 15 14 14 14 14 13 13 13 13 13 13 13 13 13 13 12 12 11 11 11 11 10 10 10 10
16 16 16 16 16 16 15 15 15 15 15 15 15 15 14 14 14 14 14 14 13 13 13 13 13 12 12 12 12 12 12 12 11 11 11 11 10 10 10 10 9 9 9
16 16 16 16 15 15 15 15 15 15 15 14 14 14 14 14 14 14 13 13 13 13 12 12 12 12 11 11 11 11 11 11 10 10 10 9 9 9 9 9 8 8 8
16 16 15 15 15 15 15 15 14 14 14 14 13 13 13 13 13 13 13 13 12 12 11 11 11 11 11 10 10 10 10 9 9 9 9 8 8 8 8 8 8 7 7
16 15 15 15 15 15 14 14 14 14 13 13 13 13 12 12 12 12 12 12 11 11 10 10 10 10 10 9 9 9 9 8 8 8 8 7 7 7 7 7 7 6 6
15 15 15 15 14 14 14 14 13 13 13 13 12 12 12 11 11 11 11 11 11 10 10 9 9 9 9 8 8 8 8 7 7 7 7 6 6 6 6 6 6 6 5
15 15 14 14 14 14 13 13 13 13 12 12 11 11 11 10 10 10 10 10 10 10 9 9 8 8 8 8 7 7 7 7 6 6 6 6 6 6 5 5 5 5 5
14 14 14 14 13 13 13 13 12 12 12 11 11 10 10 9 9 9 9 9 9 9 8 8 7 7 7 7 7 6 6 6 6 6 5 5 5 5 5 5 4 4 4
14 13 13 13 12 12 12 12 11 11 11 10 10 10 9 9 8 8 8 8 8 8 7 7 7 6 6 6 6 6 6 5 5 5 5 5 5 4 4 4 4 4 4
13 13 12 12 12 11 11 11 11 10 10 10 10 9 9 8 8 8 8 7 7 7 7 6 6 6 6 5 5 5 5 5 5 4 4 4 4 4 4 4 4 4 3
12 12 12 11 11 11 10 10 9 9 9 9 9 9 8 8 7 7 7 7 6 6 6 6 6 6 5 5 5 5 5 4 4 4 4 4 4 4 4 3 3 3 3
12 12 11 11 10 10 10 10 9 8 8 8 8 8 8 7 7 6 6 6 6 6 6 6 6 5 5 5 5 5 4 4 4 4 4 4 3 3 3 3 3 3 3
11 11 10 10 10 9 9 9 8 8 7 7 7 7 7 6 6 6 6 6 6 6 6 6 5 5 5 5 4 4 4 4 4 4 3 3 3 3 3 3 3 2 2
10 10 10 9 9 9 8 8 7 7 7 6 6 6 6 6 6 6 6 6 6 6 6 6 5 5 5 4 4 4 4 4 4 3 3 3 3 3 3 2 2 2 2
9 9 9 9 9 8 8 8 7 7 6 6 6 6 6 6 6 6 6 6 6 6 6 6 5 5 5 4 4 4 4 4 3 3 3 3 2 2 2 2 2 2 2
9 9 9 9 8 8 8 7 7 7 6 6 6 6 6 6 6 6 6 6 6 6 6 5 5 5 4 4 4 4 4 3 3 3 3 2 2 2 2 2 2 2 2
9 9 8 8 8 8 8 8 7 7 7 6 6 6 6 6 6 6 6 6 6 6 5 5 5 5 4 4 4 3 3 3 3 3 2 2 2 2 2 2 2 2 2
9 9 8 8 8 8 8 8 7 7 7 7 7 6 6 6 6 6 6 6 6 6 5 5 5 5 4 4 4 3 3 3 3 3 3 2 2 2 2 2 2 2 2
9 9 9 8 8 8 8 8 8 8 7 7 7 7 7 7 7 6 6 6 6 6 5 5 5 5 4 4 4 3 3 3 3 3 3 2 2 2 2 2 2 2 2
9 9 9 9 9 8 8 8 8 8 8 7 7 7 7 7 7 6 6 6 6 5 5 5 5 4 4 4 4 4 3 3 3 3 3 2 2 2 2 2 2 2 2
9 9 9 9 9 9 9 8 8 8 8 8 7 7 7 7 7 6 6 6 6 5 5 5 5 5 4 4 4 4 3 3 3 3 3 2 2 2 2 2 2 2 2
Wind_Speed
5 5 5 5 5 5 5 5 5 4 4 4 5 5 5 5 5 5 4 4 4 3 3 3 2 1 1 2 2 1 2 1 1 2 3 4 4 4 5 5 7 8 7
4 4 4 4 5 5 5 5 4 5 4 4 4 4 4 4 4 5 5 4 4 3 2 1 1 1 1 2 3 3 3 3 3 3 3 3 4 3 2 2 5 6 7
5 4 4 4 4 4 4 4 4 5 5 4 5 5 4 4 4 4 4 3 4 4 4 3 3 3 3 3 4 4 4 4 4 4 3 3 4 4 3 3 5 4 5
5 5 4 4 4 4 4 5 5 5 5 4 4 4 4 4 4 5 5 6 6 7 7 8 8 7 6 5 5 5 5 6 5 5 5 4 4 4 4 4 4 4 4
5 5 4 5 5 5 5 6 6 6 5 5 5 4 4 3 4 6 7 8 9 10 11 11 11 14 15 11 8 7 7 6 6 6 6 5 5 5 5 4 4 3 4
5 5 5 5 5 6 6 6 7 6 6 6 5 5 5 4 7 11 10 10 10 11 11 10 11 12 16 18 19 17 13 9 7 6 6 6 6 5 5 5 4 4 3
6 5 6 6 6 6 7 7 7 7 7 6 6 7 8 9 12 14 15 11 11 11 10 9 9 10 11 10 15 17 17 18 14 9 9 7 5 5 5 5 4 3 2
6 6 6 7 7 7 7 7 7 7 7 7 8 9 9 10 14 17 18 13 12 11 10 9 9 9 9 10 11 12 11 11 11 9 8 7 6 4 4 4 3 3 2
6 6 6 7 8 8 8 7 7 8 8 8 8 9 10 10 13 15 15 12 12 12 10 10 10 10 11 12 11 11 10 8 12 13 12 10 10 10 10 6 6 5 4
6 6 6 7 7 8 8 8 8 8 9 10 10 10 11 10 11 13 13 10 11 10 10 10 13 11 11 10 9 8 8 5 4 5 5 5 6 7 8 7 5 5 4
6 7 7 7 7 8 8 8 9 10 11 12 12 11 11 11 12 13 12 9 10 10 9 8 8 11 11 11 8 7 5 3 3 4 4 4 4 5 6 8 6 3 3
7 7 7 8 7 8 9 9 10 11 12 12 12 11 9 9 11 13 15 13 11 11 9 8 8 11 11 10 7 6 6 4 3 4 5 5 5 4 3 5 4 3 2
7 8 8 9 8 8 9 10 9 9 9 10 10 10 9 9 11 16 16 15 14 10 9 12 11 10 9 7 8 7 5 4 4 5 5 4 4 3 3 4 5 6 6
8 8 9 10 10 9 8 7 7 7 8 9 10 10 10 8 8 8 9 11 13 12 10 10 9 7 5 5 5 4 3 5 5 5 4 4 3 3 4 4 4 4 4
9 9 10 10 10 11 11 9 8 7 7 9 9 9 10 9 7 8 8 7 7 8 7 5 5 4 4 4 4 4 4 5 5 4 4 4 4 4 4 4 4 4 4
9 9 9 9 9 11 12 13 19 15 17 16 13 12 10 12 13 12 11 11 10 8 6 5 5 5 5 5 4 4 4 4 4 4 4 4 4 4 4 4 4 4 5
10 10 9 9 10 10 10 12 12 14 18 17 16 16 15 14 13 11 10 8 6 4 4 5 5 5 5 4 4 4 4 4 3 3 3 4 4 4 4 4 4 4 5
11 11 10 9 9 10 10 10 11 12 11 9 11 13 13 12 10 9 8 5 4 3 3 5 5 5 4 4 4 4 4 3 3 3 3 4 4 4 4 4 4 5 5
10 9 9 9 10 10 10 10 10 11 11 10 9 7 8 8 6 4 3 2 3 4 5 5 4 4 5 5 4 3 2 2 3 3 3 3 3 3 4 5 5 6 6
9 13 10 9 10 10 9 10 10 10 10 10 9 9 7 6 6 5 4 2 2 4 4 5 5 5 4 4 2 2 2 2 2 3 3 3 4 4 4 5 5 6 6
9 10 11 9 9 9 9 9 9 10 9 9 9 8 8 7 6 5 4 3 3 4 4 4 4 4 4 3 2 1 2 2 3 3 3 3 4 4 4 4 5 6 6
8 9 8 9 9 8 9 9 9 9 10 10 9 8 7 4 5 5 4 3 3 4 4 3 3 3 4 3 3 2 2 3 3 3 3 4 4 4 5 5 6 6 6
9 9 8 9 8 9 8 8 8 8 9 9 9 8 7 5 5 5 4 4 3 4 5 4 3 4 5 5 4 2 2 3 3 4 4 4 5 5 5 5 7 8 7
8 9 10 9 9 8 8 8 8 9 9 8 8 7 6 5 4 5 4 4 4 4 5 4 3 4 5 4 4 4 5 5 4 5 6 6 6 6 6 6 7 8 7
7 8 8 8 8 7 7 7 7 7 8 7 7 7 7 6 5 5 4 4 4 4 4 5 4 4 5 4 5 6 6 4 2 3 6 8 7 6 6 7 7 8 8
7 8 7 7 6 6 6 6 7 7 6 6 6 5 5 6 6 5 5 4 4 4 5 5 5 5 6 6 7 8 6 4 3 3 5 7 7 7 7 7 9 8 8
Wind_Direction
167 169 173 178 183 184 187 187 184 177 164 170 172 177 179 182 179 183 208 182 177 191 214 187 185 240 338 338 9 7 359 38 119 105 83 66 67 73 97 117 125 114 107
151 157 169 171 172 174 178 180 176 166 159 161 164 164 172 170 171 176 197 179 163 173 173 125 144 181 113 354 13 22 37 50 88 107 94 82 69 68 70 88 101 108 111
148 153 155 162 165 167 170 170 161 155 152 147 141 144 157 155 157 169 170 142 124 106 92 78 65 64 58 47 39 32 33 46 71 95 85 69 65 48 40 47 63 67 96
141 139 138 141 142 146 147 142 137 134 132 131 130 130 137 143 142 140 129 111 95 82 75 71 65 63 60 56 53 41 51 58 68 82 80 68 54 32 35 28 34 20 26
128 133 137 129 128 128 125 124 122 119 123 120 116 113 116 133 137 130 120 113 101 89 78 74 74 75 70 67 67 51 51 59 70 79 80 70 51 35 23 8 22 10 16
125 127 126 124 122 121 118 113 112 112 111 110 109 109 108 109 104 112 115 107 101 98 93 86 81 78 78 75 72 66 62 65 69 72 73 69 53 34 14 19 18 6 4
123 123 124 125 123 118 117 112 108 107 105 100 102 101 95 85 93 98 100 101 98 96 95 92 88 81 79 83 77 70 63 62 68 80 77 67 55 27 8 15 11 353 319
131 130 128 126 122 118 115 114 112 108 107 104 98 95 92 89 94 97 97 95 92 89 88 91 92 83 79 85 86 78 68 58 65 75 81 74 67 35 11 4 340 333 342
135 131 132 131 127 125 123 120 117 113 107 103 98 96 95 90 89 96 101 101 97 91 85 79 84 84 78 85 91 92 88 79 76 87 94 92 76 54 35 25 15 12 10
134 133 131 129 127 128 126 122 117 112 109 102 94 90 93 93 88 95 104 110 106 99 90 80 74 77 75 79 89 92 89 85 88 89 93 82 75 59 50 42 28 14 3
117 120 122 123 124 124 121 119 116 112 107 101 96 90 88 88 83 85 96 108 111 107 99 91 81 77 74 71 76 83 87 85 91 87 87 80 65 58 50 43 36 21 9
106 110 113 116 118 119 119 118 117 118 114 109 104 96 87 81 81 83 85 93 102 105 105 103 96 86 78 70 67 58 54 60 73 73 69 59 54 44 29 18 14 352 302
108 108 107 106 103 108 117 121 120 117 117 116 111 106 98 90 85 85 87 91 94 98 102 106 105 97 86 80 75 64 53 49 56 60 57 51 46 29 9 8 2 349 334
114 111 111 109 102 94 93 98 105 112 117 118 117 115 112 105 101 100 102 101 100 102 106 107 103 90 79 74 77 72 64 54 50 48 42 35 24 19 21 16 3 349 347
113 112 109 104 102 92 81 70 82 77 104 118 119 121 123 117 109 109 116 112 112 111 118 121 118 110 106 101 88 75 69 60 48 36 34 30 24 22 16 9 1 350 353
122 116 112 112 108 105 100 84 63 72 76 82 92 105 102 109 113 104 99 100 102 112 115 121 116 111 105 99 92 84 72 56 39 34 35 29 21 14 7 360 0 359 355
116 114 113 114 116 115 114 112 103 79 71 76 86 96 108 114 110 107 103 102 113 121 116 113 105 99 94 91 82 78 76 66 38 29 32 27 14 8 9 1 359 360 347
109 112 115 115 116 117 119 118 118 118 110 95 87 97 108 113 113 111 108 110 135 143 124 110 108 104 93 79 72 67 66 59 42 30 31 23 13 4 2 352 350 351 333
112 116 115 116 117 118 121 120 119 118 118 119 120 112 109 114 113 123 134 151 141 130 120 110 105 101 93 86 79 68 66 61 41 30 33 14 0 356 355 343 342 342 331
108 115 119 122 121 122 123 124 124 124 125 129 133 137 144 150 148 158 176 188 152 117 113 112 105 101 101 99 92 75 69 64 41 27 29 5 355 350 342 336 340 338 332
121 124 126 123 124 126 126 128 130 132 133 135 137 147 158 161 156 160 163 159 132 116 113 114 120 124 124 128 104 68 53 61 47 28 16 356 347 341 332 332 334 332 330
125 131 133 127 127 131 136 138 137 136 140 140 142 154 173 181 163 159 154 153 136 123 120 123 122 116 106 98 91 60 39 50 42 20 358 346 339 331 329 335 337 329 324
135 136 132 129 133 135 139 138 138 141 144 145 150 159 174 187 170 156 151 144 128 125 124 126 117 110 111 111 107 84 50 53 32 11 349 337 331 327 328 331 324 322 327
139 138 135 136 141 148 147 146 149 151 151 152 155 162 169 173 164 151 148 138 135 137 141 147 145 138 132 134 131 107 89 71 33 6 348 327 318 320 323 320 317 322 323
138 136 137 142 147 151 152 151 151 150 152 156 161 165 169 170 165 157 152 150 156 158 167 172 169 158 151 148 132 125 123 111 54 350 326 311 308 309 309 312 314 316 321
143 140 141 144 149 151 149 147 147 150 154 159 161 162 167 169 167 165 164 166 176 177 186 189 180 171 170 164 153 153 161 181 231 283 299 298 297 300 309 310 312 314 315
Height
1500 1502 1504 1505 1507 1510 1512 1515 1518 1520 1523 1525 1527 1529 1532 1533 1535 1537 1539 1542 1544 1546 1547 1549 1550 1552 1553 1554 1556 1557 1558 1559 1559 1561 1561 1562 1562 1562 1563 1563 1563 1563 1563
1499 1501 1502 1504 1506 1507 1509 1512 1515 1518 1520 1522 1524 1526 1529 1531 1533 1535 1537 1539 1541 1543 1545 1546 1548 1549 1551 1552 1553 1555 1556 1556 1557 1558 1559 1560 1560 1561 1561 1561 1561 1561 1560
1498 1500 1501 1503 1505 1506 1508 1510 1512 1515 1517 1519 1522 1524 1526 1528 1530 1533 1535 1537 1539 1541 1543 1544 1545 1547 1548 1550 1551 1552 1553 1554 1554 1556 1556 1557 1558 1558 1559 1559 1559 1559 1558
1498 1499 1500 1502 1503 1505 1507 1509 1511 1513 1515 1517 1519 1522 1524 1526 1528 1531 1533 1535 1537 1539 1541 1542 1543 1545 1546 1548 1549 1550 1551 1552 1552 1553 1554 1555 1556 1556 1557 1557 1557 1557 1556
1497 1498 1500 1501 1503 1505 1506 1508 1510 1512 1514 1516 1518 1520 1522 1525 1527 1529 1531 1534 1535 1537 1539 1540 1542 1543 1545 1546 1547 1548 1549 1550 1551 1552 1553 1553 1554 1554 1555 1555 1555 1554 1554
1497 1498 1500 1501 1503 1504 1506 1507 1509 1511 1513 1515 1517 1519 1521 1524 1526 1528 1530 1532 1534 1536 1537 1539 1540 1542 1543 1545 1546 1547 1548 1548 1549 1550 1551 1552 1552 1553 1553 1553 1553 1553 1552
1497 1499 1500 1501 1503 1504 1506 1508 1509 1511 1513 1515 1517 1519 1521 1523 1525 1527 1529 1530 1532 1534 1536 1538 1539 1541 1542 1544 1544 1546 1547 1547 1549 1550 1550 1551 1551 1552 1552 1551 1551 1551 1551
1497 1499 1500 1502 1502 1504 1506 1508 1509 1511 1513 1515 1516 1519 1521 1523 1525 1526 1528 1530 1531 1533 1535 1537 1539 1541 1542 1543 1544 1545 1546 1547 1548 1549 1550 1550 1551 1551 1551 1551 1550 1550 1550
1498 1499 1501 1502 1503 1504 1506 1508 1510 1511 1513 1515 1517 1519 1521 1523 1525 1527 1528 1530 1531 1533 1535 1537 1539 1540 1541 1543 1544 1545 1546 1547 1548 1549 1550 1550 1550 1551 1550 1550 1549 1549 1548
1497 1499 1501 1502 1503 1505 1506 1508 1510 1512 1514 1515 1517 1520 1521 1523 1525 1527 1529 1530 1531 1533 1535 1537 1539 1541 1542 1543 1544 1545 1546 1548 1549 1550 1551 1551 1551 1551 1550 1550 1549 1548 1548
1497 1499 1500 1502 1503 1505 1506 1508 1510 1512 1514 1516 1517 1520 1522 1524 1526 1528 1529 1531 1532 1534 1535 1538 1540 1542 1543 1545 1546 1547 1548 1549 1550 1551 1551 1551 1552 1552 1551 1550 1549 1549 1547
1496 1498 1500 1501 1503 1504 1506 1508 1510 1512 1514 1516 1518 1520 1522 1524 1527 1529 1530 1532 1534 1535 1537 1539 1541 1544 1545 1546 1547 1548 1550 1550 1551 1552 1552 1552 1552 1552 1551 1550 1549 1548 1547
1496 1497 1499 1500 1502 1504 1506 1508 1510 1512 1514 1516 1518 1520 1523 1525 1527 1529 1531 1533 1535 1537 1539 1541 1543 1545 1546 1548 1549 1550 1551 1551 1552 1553 1553 1553 1553 1552 1552 1551 1550 1548 1547
1494 1496 1498 1500 1502 1504 1506 1508 1510 1512 1515 1517 1519 1521 1523 1526 1528 1530 1533 1535 1537 1539 1541 1543 1545 1547 1549 1550 1551 1552 1553 1553 1553 1554 1554 1554 1553 1553 1552 1551 1549 1548 1547
1494 1496 1498 1500 1502 1504 1506 1509 1511 1514 1516 1518 1520 1522 1524 1527 1530 1532 1534 1537 1539 1541 1543 1546 1548 1550 1551 1553 1554 1554 1555 1555 1555 1555 1555 1555 1554 1553 1552 1551 1549 1548 1546
1494 1496 1498 1500 1502 1504 1507 1510 1513 1516 1518 1521 1523 1525 1527 1530 1532 1535 1538 1540 1542 1545 1547 1549 1551 1552 1554 1555 1556 1556 1557 1556 1557 1557 1556 1556 1555 1554 1553 1551 1550 1548 1546
1494 1496 1498 1501 1503 1506 1508 1510 1513 1517 1521 1523 1526 1528 1530 1532 1535 1538 1541 1544 1546 1548 1550 1552 1554 1555 1556 1557 1558 1558 1558 1558 1558 1557 1557 1556 1555 1554 1553 1551 1550 1548 1545
1495 1497 1499 1502 1505 1508 1511 1513 1515 1518 1522 1525 1529 1531 1534 1536 1539 1542 1544 1547 1549 1551 1552 1554 1556 1557 1558 1559 1559 1559 1559 1559 1558 1558 1557 1556 1555 1554 1553 1551 1549 1547 1545
1496 1499 1502 1505 1507 1510 1513 1516 1519 1522 1524 1527 1530 1534 1537 1539 1542 1545 1547 1549 1551 1553 1555 1556 1557 1558 1559 1559 1559 1560 1560 1559 1559 1558 1557 1556 1555 1554 1553 1551 1549 1547 1544
1499 1502 1505 1508 1511 1514 1517 1519 1522 1525 1528 1531 1533 1536 1539 1542 1545 1547 1549 1551 1553 1555 1556 1557 1558 1559 1559 1559 1560 1560 1560 1559 1559 1558 1557 1556 1555 1554 1552 1550 1548 1546 1544
1503 1506 1509 1512 1515 1517 1520 1523 1525 1528 1531 1534 1537 1539 1542 1544 1547 1549 1551 1553 1555 1556 1557 1558 1558 1559 1559 1560 1560 1560 1560 1559 1558 1558 1557 1555 1554 1553 1551 1550 1548 1545 1543
1507 1509 1512 1515 1517 1520 1523 1526 1529 1531 1534 1537 1539 1542 1544 1546 1549 1551 1552 1554 1555 1557 1557 1558 1559 1559 1559 1560 1560 1559 1559 1559 1558 1557 1555 1554 1553 1552 1550 1548 1546 1544 1541
1511 1513 1515 1518 1521 1523 1526 1529 1531 1534 1536 1539 1541 1543 1545 1547 1550 1551 1553 1554 1555 1556 1557 1558 1559 1559 1559 1559 1559 1559 1558 1557 1557 1555 1554 1553 1551 1550 1548 1547 1545 1542 1540
1514 1516 1518 1521 1523 1526 1528 1531 1533 1536 1538 1540 1542 1544 1546 1548 1550 1552 1553 1554 1555 1556 1557 1557 1558 1558 1558 1558 1558 1557 1557 1556 1555 1554 1552 1551 1549 1548 1546 1545 1543 1541 1538
1517 1519 1521 1523 1526 1528 1530 1532 1535 1537 1539 1541 1543 1545 1546 1548 1550 1551 1553 1554 1554 1555 1556 1556 1557 1557 1556 1556 1556 1556 1555 1554 1553 1552 1550 1548 1547 1546 1544 1543 1541 1539 1536
1519 1521 1523 1525 1527 1529 1532 1534 1536 1538 1540 1542 1543 1545 1546 1548 1549 1550 1551 1552 1553 1554 1554 1555 1555 1555 1555 1555 1554 1554 1553 1552 1551 1550 1548 1546 1545 1543 1542 1540 1538 1536 1534